Location: *
(46.3500°N, 10.9000°E)
Time: 21:44:22
(UTC+00:00)

Explorer 7 - Pass Details

Date: 25 April 2021
Orbit: 484 x 677 km, 50.3° (Epoch: 13 May)

Event Time Altitude Azimuth Distance (km) Brightness Sun altitude
Rises 17:35:47 0° 236° (WSW) 2,573 11.0 6.0°
Reaches altitude 10° 17:37:55 10° 234° (SW) 1,711 10.0 5.7°
Maximum altitude 17:41:46 68° 152° (SSE) 567 6.9 5.0°
Drops below altitude 10° 17:45:51 10° 69° (ENE) 1,815 9.0 4.4°
Sets 17:48:10 0° 67° (ENE) 2,746 9.9 4.0°
